Voltar ao catálogo

SICH 1

AtivoCiênciaPO
NORAD 23657·PAYLOAD·🇺🇦 Ukraine

Lançado Aug 31, 1995 de Plesetsk Cosmodrome

Loading…

Próximas Passagens (próximas 24 horas)

TLE

AtualizadoSource: Space-Track

Época: Sep 14, 2026, 14:43 UTC

1 23657U 95046A   26257.61362061  .00001025  00000-0  91280-4 0  9996
2 23657  82.5246 316.7752 0019028  28.0774 332.1469 14.94895938679348

Acompanhe SICH 1 em tempo real com AllMySat

Download on the App Store